Home   Weather   Mulhouse   Past weeks

Flag for France Past Weather in Mulhouse, Alsace, France — Yesterday and Last 2 Weeks

Now
37 °F

Clear.


Feels Like: 32 °F
Forecast: 23 / 45 °F
Wind: 7 mph from South

Location: Bale-Mulhouse

Current Time: Dec 8, 2016 at 7:32:10 pm

Latest Report: Dec 8, 2016 at 6:30 pm


Visibility: 10 mi

Pressure: 30.51 "Hg

Humidity: 81%

Dew Point: 32 °F

Location of MulhouseLocation

Past Weather in Mulhouse — Graph

°F

Mulhouse Temperature Yesterday

Maximum temperature yesterday: 36 °F (at 1:30 pm)
Minimum temperature yesterday: 27 °F (at 3:30 am)
Average temperature yesterday: 30 °F

High & Low Weather Summary for the Past Weeks

 TemperatureHumidityPressure
High50 °F (Nov 26, 1:00 pm)100% (Nov 23, 8:30 pm)30.57 "Hg (Nov 23, 8:30 pm)
Low21 °F (Nov 29, 4:00 am)42% (Nov 28, 2:30 pm)29.86 "Hg (Nov 25, 4:30 am)
Average35 °F89%30.25 "Hg
* Reported Nov 23 6:00 pm — Dec 8 6:00 pm, Mulhouse, Weather by CustomWeather, © 2016

Note: Actual official high and low records may vary slightly from our data, if they occured in-between our weather recording intervals... More about our weather records

Advertising

Mulhouse Weather History for the Previous 24 Hours

Scroll right to see more
 ConditionsComfort  
Time TempWeatherWind HumidityBarometerVisibility
6:00 pm
Thu, Dec 8
39 °FClear.7 mph75%30.51 "Hg10 mi
5:30 pm37 °FClear.8 mph81%30.51 "Hg10 mi
5:00 pm41 °FClear.8 mph70%30.51 "Hg10 mi
4:30 pm41 °FSunny.6 mph70%30.48 "Hg10 mi
4:00 pm45 °FPassing clouds.6 mph61%30.48 "HgN/A
3:30 pm46 °FPassing clouds.7 mph62%30.48 "HgN/A
3:00 pm46 °FPassing clouds.6 mph62%30.48 "HgN/A
2:30 pm46 °FPassing clouds.6 mph57%30.51 "HgN/A
2:00 pm46 °FSunny.8 mph57%30.51 "Hg10 mi
1:30 pm46 °FSunny.9 mph57%30.51 "Hg10 mi
1:00 pm43 °FSunny.10 mph66%30.54 "Hg10 mi
12:30 pm43 °FPassing clouds.8 mph66%30.54 "HgN/A
12:00 pm41 °FSunny.8 mph70%30.54 "Hg10 mi
11:30 am39 °FSunny.8 mph70%30.57 "Hg10 mi
11:00 am37 °FPassing clouds.8 mph75%30.57 "HgN/A
10:30 am36 °FSunny.8 mph81%30.57 "Hg10 mi
10:00 am34 °FSunny.9 mph87%30.57 "Hg10 mi
9:30 am34 °FSunny.8 mph81%30.57 "Hg10 mi
9:00 am32 °FSunny.9 mph87%30.57 "Hg10 mi
8:30 am30 °FSunny.8 mph86%30.57 "Hg10 mi
8:00 am30 °FPassing clouds.8 mph86%30.57 "HgN/A
7:30 am30 °FPassing clouds.7 mph86%30.57 "HgN/A
7:00 am30 °FClear.8 mph86%30.57 "Hg10 mi
6:30 am30 °FClear.8 mph86%30.57 "Hg10 mi
6:09 am30 °FClear.8 mph86%30.57 "Hg10 mi
5:30 am28 °FPassing clouds.8 mph93%30.57 "HgN/A
5:00 am30 °FClear.8 mph86%30.57 "Hg10 mi
4:30 am30 °FClear.6 mph86%30.57 "Hg10 mi
4:00 am30 °FClear.7 mph93%30.57 "Hg10 mi
3:30 am30 °FClear.5 mph86%30.57 "Hg10 mi
2:30 am30 °FClear.8 mph93%30.57 "Hg10 mi
2:00 am30 °FClear.6 mph93%30.57 "Hg10 mi
1:30 am30 °FClear.6 mph93%30.54 "Hg10 mi
1:00 am28 °FClear.8 mph93%30.57 "Hg10 mi
12:30 am28 °FClear.7 mph93%30.57 "Hg4 mi
12:00 am28 °FClear.5 mph100%30.57 "Hg5 mi
11:30 pm
Wed, Dec 7
28 °FClear.6 mph100%30.57 "Hg5 mi
11:00 pm28 °FClear.6 mph93%30.57 "Hg5 mi
10:30 pm28 °FClear.3 mph100%30.57 "Hg4 mi
10:00 pm28 °FClear.No wind93%30.57 "Hg4 mi
9:30 pm30 °FPassing clouds.2 mph93%30.57 "Hg4 mi
9:00 pm28 °FPassing clouds.5 mph100%30.57 "Hg4 mi
8:30 pm30 °FPassing clouds.3 mph93%30.57 "Hg4 mi
8:00 pm32 °FPassing clouds.5 mph100%30.57 "Hg4 mi
7:30 pm32 °FIce fog.5 mph100%30.57 "Hg0 mi
7:00 pm30 °FIce fog.5 mph100%30.57 "Hg0 mi
Weather by CustomWeather, © 2016

See weather overviewHow to use our weather pages